STARLINK-1120 (45045 NORAD) Tracking and Keplerian Element Data

This shows tracking and keplerian element data for the satellite.

Feedback or suggestion? Click here.




ElementValue
Catalog45045
NameSTARLINK-1120
Epoch Orbit401
Epoch Day52.91667824
Epoch Year2020
RAAN120.8965
Inclination52.9971
Eccentricity0.0001504
Argument of Perigee55.0488
Mean Anonmoly147.2184
Mean Motion15.50807162
Decay Rate0.00459875
L11 45045U 20006B 20052.91667824 .00459875 00000-0 73977-2 0 9991
L22 45045 52.9971 120.8965 0001504 55.0488 147.2184 15.50807162 4011

Live tracking and technical data element details for STARLINK-1120 (NORAD 45045). STARLINK-1120 can be tracked NOW for your location showing map with azimuth and elevation plus other details from your city location.

Track the satellite on the map from your city or location and see movement details for azimuth, elevation, latitude, longitude, range, height, and movement on the map or in text.







IsCatalogInMostPopularTable: catalog: 45045, numindb: 5
Update: records affected: 1



GetName: 45045 STARLINK-1120

Hit Count: updated at: Mon, 24 Feb 2020 17:33:51 GMT